Location: Guferjoch
(46.7462°N, 8.4506°E)
Time: 23:42:31
(UTC+00:00)

ERS-2 - Pass Details

Date: 14 July 2020
Orbit: 494 x 498 km, 98.5° (Epoch: 14 August)

Event Time Altitude Azimuth Distance (km) Brightness Sun altitude
Rises 02:28:42 0° 153° (SSE) 2,570 5.5 -10.9°
Reaches altitude 10° 02:30:47 10° 149° (SSE) 1,691 4.6 -10.6°
Maximum altitude 02:34:20 53° 72° (ENE) 617 3.0 -10.2°
Drops below altitude 10° 02:37:54 10° 355° (N) 1,703 5.5 -9.8°
Sets 02:40:01 0° 350° (N) 2,591 6.3 -9.6°
